Location: Taukkyan
(23.1052°N, 94.0030°E)
Time: 11:45:45
(UTC+00:00)

CZ-4 R/B - Pass Details

Date: 06 July 2020
Orbit: 533 x 596 km, 97.7° (Epoch: 14 August)

Event Time Altitude Azimuth Distance (km) Brightness Sun altitude
Rises 13:29:19 0° 209° (SSW) 2,754 4.9 -12.1°
Reaches altitude 10° 13:32:50 10° 242° (WSW) 1,845 4.4 -12.8°
Maximum altitude 13:34:16 12° 263° (W) 1,732 4.6 -13.1°
Drops below altitude 10° 13:35:42 10° 285° (WNW) 1,834 5.2 -13.3°
Sets 13:39:10 0° 318° (NW) 2,715 6.5 -14.0°
